DateTimeUTC,F1_A11,F1_S11,BsB_S11,BsG_S11,BsR_S11,BbsB_S11,BbsG_S11,BbsR_S11,BaB_A11,BaG_A11,BaR_A11,Tu_S11,T_S11,Uu_S11,U_S11,P_S11,T1_A11
2021-07-30T13:00:00Z,00000200,20000000,,,,,,,0000.02,-000.25,-000.20,19.7,25.9,08.3,05.7,0683.9,31.1
2021-07-30T13:01:00Z,00000200,20000000,,,,,,,0000.22,0000.50,0000.26,19.7,25.9,08.3,05.7,0683.9,31.1
2021-07-30T13:02:00Z,00000200,20000000,,,,,,,0000.04,0000.01,0000.24,19.7,25.9,08.3,05.7,0683.9,31.1
2021-07-30T13:03:00Z,00000200,60000000,,,,,,,0001.11,0001.44,0000.35,19.7,25.9,08.3,05.7,0683.9,31.1
2021-07-30T13:04:00Z,00000200,40000000,0008.86,0005.77,0003.35,0001.21,0000.49,0000.58,0002.27,0001.93,0002.06,19.8,25.9,08.4,05.8,0684.9,31.1
2021-07-30T13:05:00Z,00000200,00000000,0007.89,0004.92,0002.89,0000.84,0000.28,0000.37,0002.14,0001.38,0000.85,19.9,25.8,08.3,05.8,0684.9,31.1
2021-07-30T13:06:00Z,00000200,00000000,0008.03,0005.01,0002.90,0000.68,0000.72,0000.46,0001.46,0001.69,0001.12,19.9,25.8,08.3,05.8,0684.9,31.1
2021-07-30T13:07:00Z,00000200,00000000,0008.35,0005.48,0002.94,0000.63,0000.93,0000.10,0002.13,0001.96,0001.45,19.9,25.9,08.3,05.8,0684.9,31.1
2021-07-30T13:08:00Z,00000200,00000000,0008.30,0005.81,0003.28,0001.41,0000.65,0000.67,0002.16,0001.92,0001.56,20.0,25.9,08.3,05.8,0684.9,31.1
2021-07-30T13:09:00Z,00000200,00000000,0008.30,0005.67,0002.71,0001.09,0000.85,0000.54,0001.61,0001.37,0001.35,20.0,25.9,08.2,05.7,0684.9,31.1
2021-07-30T13:10:00Z,00000200,00000000,0008.26,0005.28,0003.10,0001.33,0000.60,0000.34,0001.96,0002.07,0000.90,20.0,25.9,08.2,05.8,0684.9,31.1
2021-07-30T13:11:00Z,00000200,00000000,0006.80,0003.80,0001.84,0000.52,0000.40,0000.24,0001.55,0001.29,0001.18,20.0,25.9,08.2,05.7,0684.9,31.1
2021-07-30T13:12:00Z,00000200,00000000,0007.78,0005.28,0002.66,0000.87,0000.58,0000.43,0001.66,0001.30,0001.26,20.0,25.9,08.2,05.7,0684.9,31.1
2021-07-30T13:13:00Z,00000200,00000000,0007.82,0005.00,0002.73,0000.91,0000.64,0000.60,0002.02,0001.87,0000.97,20.1,26.0,08.2,05.8,0684.9,31.1
2021-07-30T13:14:00Z,00000200,00000000,0007.20,0005.15,0003.17,0001.29,0000.63,0000.66,0001.61,0001.58,0001.48,20.1,26.0,08.2,05.7,0684.9,31.1
2021-07-30T13:15:00Z,00000200,00000000,0008.52,0005.82,0003.42,0001.11,0000.68,0000.65,0002.07,0001.83,0001.39,20.0,26.0,08.3,05.8,0684.9,31.1
2021-07-30T13:16:00Z,00000200,00000000,0007.85,0005.31,0003.04,0000.22,0000.78,0000.47,0002.14,0002.08,0000.89,20.1,26.0,08.3,05.8,0684.9,31.1
2021-07-30T13:17:00Z,00000200,00000000,0008.05,0005.64,0003.28,0000.75,0000.47,0000.47,0002.05,0001.91,0001.62,20.1,26.0,08.4,05.9,0684.9,31.1
2021-07-30T13:18:00Z,00000200,00000000,0008.48,0005.80,0003.27,0001.60,0000.67,0000.59,0001.91,0001.69,0001.02,20.1,26.0,08.4,05.9,0684.9,31.1
2021-07-30T13:19:00Z,00000200,00000000,0007.47,0004.83,0002.99,0001.08,0000.60,0000.59,0001.99,0001.46,0001.43,20.1,26.0,08.2,05.8,0684.8,31.1
2021-07-30T13:20:00Z,00000200,00000000,0006.78,0004.05,0002.44,0000.44,0000.20,0000.21,0001.20,0001.39,0000.95,20.2,26.0,08.2,05.7,0684.8,31.1
2021-07-30T13:21:00Z,00000200,00000000,0007.57,0004.48,0002.84,0001.12,0000.49,0000.17,0001.69,0001.45,0000.89,20.2,26.0,08.2,05.7,0684.8,31.1
2021-07-30T13:22:00Z,00000200,00000000,0006.92,0004.39,0002.53,0001.01,0000.60,0000.14,0001.68,0001.38,0001.36,20.2,26.1,08.2,05.7,0684.8,31.1
2021-07-30T13:23:00Z,00000200,00000000,0006.82,0005.35,0002.90,0000.83,0000.49,0000.28,0001.79,0001.62,0000.86,20.2,26.1,08.0,05.6,0684.8,31.1
2021-07-30T13:24:00Z,00000200,00000000,0006.57,0004.51,0002.34,0000.31,0000.47,0000.37,0001.34,0001.39,0001.38,20.2,26.1,08.1,05.7,0684.8,31.1
2021-07-30T13:25:00Z,00000200,00000000,0007.36,0005.02,0002.56,0001.17,0000.33,0000.56,0002.10,0001.61,0001.37,20.2,26.1,08.2,05.7,0684.8,31.1
2021-07-30T13:26:00Z,00000200,00000000,0006.64,0004.30,0002.58,0001.25,0000.70,0000.34,0001.86,0001.60,0001.00,20.3,26.1,08.1,05.7,0684.8,31.1
2021-07-30T13:27:00Z,00000200,00000000,0007.51,0004.80,0002.80,0000.94,0000.65,0000.34,0001.50,0001.91,0001.21,20.3,26.1,08.2,05.7,0684.8,31.1
2021-07-30T13:28:00Z,00000200,00000000,0008.45,0005.24,0002.91,0000.92,0000.59,0000.44,0001.86,0001.46,0001.33,20.3,26.1,08.3,05.8,0684.8,31.1
2021-07-30T13:29:00Z,00000200,00000000,0006.94,0004.45,0002.28,0000.99,0000.12,0000.33,0001.80,0001.59,0001.01,20.3,26.1,08.1,05.7,0684.8,31.1
2021-07-30T13:30:00Z,00000200,00000000,0007.61,0004.58,0003.17,0000.83,0000.32,0000.57,0002.01,0001.60,0001.16,20.3,26.2,08.1,05.7,0684.8,31.1
2021-07-30T13:31:00Z,00000200,00000000,0008.73,0005.27,0003.15,0001.48,0000.57,0000.32,0001.46,0001.75,0001.03,20.3,26.2,08.1,05.7,0684.8,31.1
2021-07-30T13:32:00Z,00000200,00000000,0007.89,0005.00,0002.94,0000.49,0000.36,0000.50,0002.16,0001.65,0001.33,20.3,26.2,08.1,05.7,0684.8,31.1
2021-07-30T13:33:00Z,00000200,00000000,0007.90,0005.35,0003.05,0000.40,0000.74,0000.17,0001.74,0001.63,0001.11,20.3,26.2,08.2,05.7,0684.8,31.1
2021-07-30T13:34:00Z,00000200,00000000,0006.91,0004.28,0002.14,0000.70,0000.57,-000.03,0001.42,0001.38,0001.08,20.4,26.2,08.1,05.7,0684.8,31.1
2021-07-30T13:35:00Z,00000200,00000000,0006.80,0004.68,0002.29,0000.72,0000.34,0000.15,0001.77,0001.53,0001.38,20.4,26.2,08.1,05.7,0684.8,31.2
2021-07-30T13:36:00Z,00000200,00000000,0007.32,0005.57,0003.04,0001.08,0000.72,0000.12,0001.89,0001.80,0000.93,20.4,26.3,08.2,05.7,0684.8,31.2
2021-07-30T13:37:00Z,00000200,00000000,0008.21,0005.80,0003.37,0000.56,0000.40,0000.66,0002.24,0001.58,0001.64,20.4,26.3,08.3,05.8,0684.8,31.2
2021-07-30T13:38:00Z,00000200,00000000,0008.26,0006.02,0003.70,0001.56,0000.65,0000.69,0001.79,0002.10,0001.09,20.4,26.3,08.3,05.8,0684.8,31.1
2021-07-30T13:39:00Z,00000200,00000000,0008.75,0006.13,0003.66,0000.68,0000.67,0000.39,0001.63,0001.23,0001.28,20.4,26.3,08.2,05.7,0684.8,31.1
2021-07-30T13:40:00Z,00000200,00000000,0008.34,0005.97,0003.63,0000.52,0000.44,0000.56,0002.65,0002.37,0001.48,20.4,26.3,08.3,05.8,0684.8,31.1
2021-07-30T13:41:00Z,00000200,00000000,0008.58,0005.05,0002.85,0001.13,0000.58,0000.59,0001.68,0001.62,0001.41,20.5,26.3,08.3,05.8,0684.8,31.2
2021-07-30T13:42:00Z,00000200,00000000,0007.26,0004.76,0002.91,0000.59,0000.54,0000.25,0001.48,0001.57,0000.93,20.5,26.3,08.2,05.8,0684.8,31.2
2021-07-30T13:43:00Z,00000200,00000000,0007.78,0005.54,0003.25,0001.06,0000.74,0000.54,0001.86,0001.66,0001.14,20.5,26.3,08.2,05.7,0684.8,31.2
2021-07-30T13:44:00Z,00000200,00000000,0008.67,0005.42,0003.28,0000.41,0000.42,0000.65,0002.18,0001.55,0001.16,20.5,26.4,08.2,05.7,0684.8,31.1
2021-07-30T13:45:00Z,00000200,00000000,0007.45,0004.84,0002.78,0001.20,0000.46,-000.02,0001.62,0001.61,0001.51,20.5,26.4,08.1,05.7,0684.8,31.1
2021-07-30T13:46:00Z,00000200,00000000,0008.40,0005.32,0003.32,0000.63,0000.78,0000.27,0001.66,0001.52,0000.98,20.5,26.4,08.1,05.7,0684.8,31.1
2021-07-30T13:47:00Z,00000200,00000000,0008.07,0005.34,0002.78,0001.40,0000.40,0000.10,0001.86,0002.03,0001.55,20.5,26.4,08.1,05.7,0684.8,31.2
2021-07-30T13:48:00Z,00000200,00000000,0008.27,0005.88,0002.90,0001.34,0000.21,0000.38,0002.17,0001.67,0001.16,20.5,26.4,08.1,05.7,0684.8,31.2
2021-07-30T13:49:00Z,00000200,00000000,0008.46,0005.10,0003.17,0000.87,0000.65,0000.44,0001.98,0001.81,0001.28,20.5,26.4,08.1,05.7,0684.8,31.2
2021-07-30T13:50:00Z,00000200,00000000,0009.34,0005.94,0003.12,0001.29,0000.67,0000.32,0002.41,0002.10,0001.59,20.5,26.4,08.4,05.9,0684.8,31.2
2021-07-30T13:51:00Z,00000200,00000000,0007.70,0004.95,0003.29,0001.65,0000.45,0000.63,0001.55,0001.53,0001.01,20.5,26.4,08.3,05.8,0684.8,31.2
2021-07-30T13:52:00Z,00000200,00000000,0007.33,0005.29,0002.68,0000.48,0000.33,0000.51,0001.69,0001.59,0001.54,20.6,26.4,08.2,05.8,0684.8,31.1
2021-07-30T13:53:00Z,00000200,00000000,0008.48,0005.61,0003.37,0001.07,0000.59,0000.40,0002.13,0002.03,0001.32,20.6,26.4,08.3,05.8,0684.8,31.1
2021-07-30T13:54:00Z,00000200,00000000,0008.11,0005.71,0003.43,0000.88,0000.61,0000.54,0001.77,0001.51,0000.80,20.6,26.4,08.4,05.9,0684.8,31.1
2021-07-30T13:55:00Z,00000200,00000000,0007.39,0004.69,0002.68,0001.23,0000.77,0000.40,0001.55,0001.41,0001.19,20.6,26.4,08.3,05.8,0684.8,31.1
2021-07-30T13:56:00Z,00000200,00000000,0007.65,0005.39,0002.96,0001.19,0000.44,0000.34,0002.15,0001.71,0001.47,20.6,26.4,08.4,05.9,0684.8,31.2
2021-07-30T13:57:00Z,00000200,40000000,,,,,,,0000.66,0000.28,0000.06,20.6,26.5,09.0,06.3,0684.9,31.1
2021-07-30T13:58:00Z,00000200,60000000,,,,,,,-000.46,-000.15,-000.01,20.4,26.6,08.4,05.8,0683.8,31.1
2021-07-30T13:59:00Z,00000200,20000000,,,,,,,0000.34,0000.10,0000.25,20.4,26.7,08.3,05.7,0683.7,31.1
